TimeCDT,TemperatureF,Dew PointF,Humidity,Sea Level PressureIn,VisibilityMPH,Wind Direction,Wind SpeedMPH,Gust SpeedMPH,PrecipitationIn,Events,Conditions,WindDirDegrees,DateUTC
12:55 AM,80.1,60.1,50,29.79,10.0,South,13.8,-,N/A,,Clear,190,2013-09-09 05:55:00
1:55 AM,79.0,59.0,50,29.80,10.0,SSW,13.8,-,N/A,,Clear,200,2013-09-09 06:55:00
2:55 AM,75.9,59.0,56,29.80,10.0,SSW,11.5,-,N/A,,Clear,200,2013-09-09 07:55:00
3:55 AM,75.9,59.0,56,29.80,10.0,SSW,11.5,-,N/A,,Clear,200,2013-09-09 08:55:00
4:55 AM,73.9,57.9,57,29.81,10.0,South,11.5,-,N/A,,Clear,190,2013-09-09 09:55:00
5:55 AM,73.9,57.9,57,29.81,10.0,SSW,11.5,-,N/A,,Clear,200,2013-09-09 10:55:00
6:55 AM,73.0,57.0,57,29.82,10.0,SSW,12.7,-,N/A,,Clear,200,2013-09-09 11:55:00
7:55 AM,75.0,57.9,55,29.83,10.0,SSW,15.0,-,N/A,,Clear,200,2013-09-09 12:55:00
8:55 AM,79.0,59.0,50,29.83,10.0,SSW,16.1,-,N/A,,Clear,200,2013-09-09 13:55:00
9:55 AM,82.9,60.1,46,29.84,10.0,SSW,15.0,-,N/A,,Clear,210,2013-09-09 14:55:00
10:55 AM,88.0,61.0,40,29.83,10.0,SSW,15.0,23.0,N/A,,Clear,200,2013-09-09 15:55:00
11:55 AM,93.0,60.1,33,29.82,10.0,SW,20.7,28.8,N/A,,Clear,220,2013-09-09 16:55:00
12:55 PM,95.0,57.9,29,29.82,10.0,SSW,21.9,29.9,N/A,,Clear,200,2013-09-09 17:55:00
1:55 PM,96.1,57.0,27,29.80,10.0,SSW,23.0,29.9,N/A,,Clear,200,2013-09-09 18:55:00
2:55 PM,96.1,54.0,24,29.79,10.0,South,26.5,34.5,N/A,,Clear,190,2013-09-09 19:55:00
3:55 PM,95.0,53.1,24,29.79,10.0,South,18.4,31.1,N/A,,Clear,190,2013-09-09 20:55:00
4:55 PM,93.9,53.1,25,29.78,10.0,South,18.4,27.6,N/A,,Clear,190,2013-09-09 21:55:00
5:55 PM,93.0,54.0,27,29.78,10.0,South,19.6,27.6,N/A,,Clear,190,2013-09-09 22:55:00
6:55 PM,90.0,55.9,31,29.78,10.0,South,17.3,-,N/A,,Clear,180,2013-09-09 23:55:00
7:55 PM,84.9,55.9,37,29.79,10.0,South,11.5,-,N/A,,Clear,180,2013-09-10 00:55:00
8:55 PM,80.1,57.0,45,29.81,10.0,South,9.2,-,N/A,,Clear,170,2013-09-10 01:55:00
9:55 PM,81.0,55.0,41,29.82,10.0,South,12.7,-,N/A,,Clear,170,2013-09-10 02:55:00
10:55 PM,79.0,54.0,42,29.83,10.0,South,13.8,21.9,N/A,,Clear,180,2013-09-10 03:55:00
11:55 PM,79.0,55.0,44,29.84,10.0,South,18.4,26.5,N/A,,Clear,180,2013-09-10 04:55:00